Location: T�bingen+AIT
(48.5342°N, 9.0700°E)
Time: 19:30:56
(UTC+01:00)

Cosmos 1763 Rocket - Pass Details

Date: 14 September 2017
Orbit: 733 x 781 km, 74.0° (Epoch: 21 November)

Event Time Altitude Azimuth Distance (km) Brightness Sun altitude
Exits shadow 22:35:46 28° 227° (SW) 1,371 4.8 -27.4°
Maximum altitude 22:38:21 59° 297° (WNW) 858 3.9 -27.7°
Drops below altitude 10° 22:43:26 10° 17° (NNE) 2,278 6.2 -28.3°
Sets 22:45:52 0° 21° (NNE) 3,214 7.0 -28.6°
